| time (UTC) | temp F | wind direction | speed MPH | gust MPH | rain 1hr in | rain 24hr in | rain mn in | humidity % | barometer mb |
| 20260503191544 | 64 | 126 | 10.0 | 16.0 | 0.00 | 0.00 | 0.00 | 73 | 1031.9 |
| 20260503190053 | 64 | 153 | 9.0 | 18.0 | 0.00 | 0.00 | 0.00 | 72 | 1031.8 |
| 20260503184541 | 64 | 157 | 10.0 | 19.0 | 0.00 | 0.00 | 0.00 | 73 | 1031.8 |
| 20260503183056 | 64 | 85 | 12.0 | 18.0 | 0.00 | 0.00 | 0.00 | 71 | 1031.7 |
| 20260503181542 | 64 | 166 | 5.0 | 17.0 | 0.00 | 0.00 | 0.00 | 71 | 1031.7 |
| 20260503180051 | 64 | 41 | 7.0 | 22.0 | 0.00 | 0.00 | 0.00 | 72 | 1031.7 |
| 20260503174544 | 64 | 224 | 6.0 | 14.0 | 0.00 | 0.00 | 0.00 | 74 | 1031.5 |
| 20260503173105 | 63 | 115 | 10.0 | 21.0 | 0.00 | 0.00 | 0.00 | 77 | 1031.5 |
| 20260503171549 | 62 | 145 | 9.0 | 12.0 | 0.00 | 0.00 | 0.00 | 78 | 1031.4 |
| 20260503081546 | 63 | 135 | 9.0 | 14.0 | 0.00 | 0.00 | 0.00 | 77 | 1031.9 |
| 20260503071545 | 64 | 136 | 9.0 | 15.0 | 0.00 | 0.00 | 0.00 | 75 | 1031.7 |
| 20260503054543 | 64 | 127 | 16.0 | 20.0 | 0.00 | 0.00 | 0.00 | 74 | 1031.1 |
| 20260503053037 | 64 | 146 | 13.0 | 20.0 | 0.00 | 0.00 | 0.00 | 73 | 1030.9 |
| 20260503051537 | 65 | 125 | 14.0 | 22.0 | 0.00 | 0.00 | 0.00 | 75 | 1030.8 |
| 20260503050039 | 65 | 110 | 15.0 | 20.0 | 0.00 | 0.00 | 0.00 | 71 | 1030.8 |
| 20260503044536 | 65 | 135 | 10.0 | 21.0 | 0.00 | 0.00 | 0.00 | 73 | 1030.7 |
| 20260503043041 | 66 | 124 | 8.0 | 20.0 | 0.00 | 0.00 | 0.00 | 75 | 1030.7 |
| 20260503041541 | 66 | 124 | 8.0 | 14.0 | 0.00 | 0.00 | 0.00 | 74 | 1030.9 |
| 20260503040041 | 66 | 140 | 12.0 | 25.0 | 0.00 | 0.00 | 0.00 | 75 | 1030.7 |
| 20260503034536 | 66 | 115 | 13.0 | 22.0 | 0.00 | 0.00 | 0.00 | 76 | 1030.7 |
| 20260503033043 | 66 | 129 | 12.0 | 19.0 | 0.00 | 0.00 | 0.00 | 75 | 1030.7 |
| 20260503031543 | 67 | 162 | 7.0 | 14.0 | 0.00 | 0.00 | 0.00 | 75 | 1030.7 |
| 20260503030039 | 66 | 126 | 8.0 | 15.0 | 0.00 | 0.00 | 0.00 | 76 | 1030.7 |
| 20260503024539 | 66 | 108 | 12.0 | 22.0 | 0.00 | 0.00 | 0.00 | 77 | 1030.7 |
| 20260503023039 | 66 | 114 | 13.0 | 23.0 | 0.00 | 0.00 | 0.00 | 76 | 1030.8 |
| 20260503021549 | 66 | 136 | 14.0 | 21.0 | 0.00 | 0.00 | 0.00 | 75 | 1030.9 |
| 20260503020050 | 66 | 131 | 13.0 | 21.0 | 0.00 | 0.00 | 0.00 | 74 | 1031.0 |
| 20260503014606 | 66 | 115 | 15.0 | 20.0 | 0.00 | 0.00 | 0.00 | 75 | 1031.0 |
| 20260503013042 | 66 | 115 | 14.0 | 21.0 | 0.00 | 0.00 | 0.00 | 74 | 1031.2 |
| 20260503011545 | 66 | 143 | 7.0 | 19.0 | 0.00 | 0.00 | 0.00 | 75 | 1031.5 |
| 20260503010047 | 66 | 127 | 7.0 | 16.0 | 0.00 | 0.00 | 0.00 | 75 | 1031.7 |
| 20260503004555 | 66 | 141 | 9.0 | 20.0 | 0.00 | 0.00 | 0.00 | 76 | 1031.7 |
| 20260503003043 | 66 | 122 | 12.0 | 18.0 | 0.00 | 0.00 | 0.00 | 78 | 1031.6 |
| 20260503001539 | 66 | 120 | 8.0 | 16.0 | 0.00 | 0.00 | 0.00 | 81 | 1032.0 |
| 20260503000041 | 65 | 125 | 11.0 | 19.0 | 0.00 | 0.00 | 0.00 | 82 | 1032.2 |
| 20260502234542 | 65 | 138 | 11.0 | 16.0 | 0.00 | 0.00 | 0.00 | 82 | 1032.4 |
| 20260502233045 | 65 | 131 | 14.0 | 18.0 | 0.00 | 0.00 | 0.00 | 81 | 1032.6 |
| 20260502231542 | 65 | 128 | 11.0 | 16.0 | 0.00 | 0.00 | 0.00 | 83 | 1032.7 |
| 20260502230046 | 63 | 124 | 12.0 | 17.0 | 0.00 | 0.00 | 0.00 | 84 | 1032.8 |
| 20260502224540 | 63 | 121 | 7.0 | 12.0 | 0.00 | 0.00 | 0.00 | 87 | 1032.8 |
| 20260502223042 | 62 | 146 | 9.0 | 13.0 | 0.00 | 0.00 | 0.00 | 88 | 1032.8 |
| 20260502221544 | 61 | 123 | 8.0 | 13.0 | 0.00 | 0.00 | 0.00 | 88 | 1033.0 |
| 20260502220045 | 61 | 124 | 7.0 | 12.0 | 0.00 | 0.00 | 0.00 | 90 | 1033.0 |
| 20260502214540 | 60 | 143 | 9.0 | 12.0 | 0.00 | 0.00 | 0.00 | 91 | 1033.0 |
| 20260502213042 | 60 | 98 | 9.0 | 14.0 | 0.00 | 0.00 | 0.00 | 92 | 1033.1 |
| 20260502211553 | 60 | 128 | 9.0 | 13.0 | 0.00 | 0.00 | 0.00 | 92 | 1033.1 |
| 20260502210041 | 60 | 108 | 11.0 | 15.0 | 0.00 | 0.00 | 0.00 | 89 | 1033.0 |
| 20260502204537 | 60 | 129 | 12.0 | 17.0 | 0.00 | 0.00 | 0.00 | 89 | 1032.9 |
| 20260502203035 | 60 | 149 | 11.0 | 16.0 | 0.00 | 0.00 | 0.00 | 89 | 1032.6 |
| 20260502201537 | 60 | 120 | 9.0 | 15.0 | 0.00 | 0.00 | 0.00 | 90 | 1032.6 |
| 20260502200043 | 59 | 117 | 13.0 | 17.0 | 0.00 | 0.00 | 0.00 | 91 | 1032.3 |
| 20260502194543 | 60 | 132 | 11.0 | 18.0 | 0.00 | 0.00 | 0.00 | 88 | 1032.3 |
| 20260502193036 | 60 | 143 | 9.0 | 17.0 | 0.00 | 0.00 | 0.00 | 88 | 1032.2 |